Location: Albuquerque Trailhead
(34.7934°N, 106.3736°W)
Time: 02:10:53
(UTC+00:00)

Resurs 01 Rocket - Pass Details

Date: 20 June 2021
Orbit: 635 x 643 km, 97.9° (Epoch: 27 July)

Event Time Altitude Azimuth Distance (km) Brightness Sun altitude
Exits shadow 04:44:07 13° 224° (SW) 1,806 3.8 -22.6°
Maximum altitude 04:46:38 20° 265° (W) 1,450 3.7 -22.9°
Drops below altitude 10° 04:49:56 10° 314° (NW) 2,024 5.2 -23.3°
Sets 04:52:38 0° 330° (NNW) 2,937 6.5 -23.6°
